This is the latest recevied weather packets stored in our database for station/object DB0LC-2. If no packets are shown the sender has not sent any weather packets the latest 1 day(s).
| Time | Temp. | Humidity | Pressure | Rain* | Wind** | Luminosity | Snow |
|---|---|---|---|---|---|---|---|
| 1778073315 | 19.44° C | 31% | 903.3 hPa | 0 mm | - | - | - |
| 1778072698 | 20° C | 32% | 903.3 hPa | 0 mm | - | - | - |
| 1778071470 | 19.44° C | 33% | 903.2 hPa | 0 mm | - | - | - |
| 1778069050 | 19.44° C | 32% | 903.4 hPa | 0 mm | - | - | - |
| 1778068430 | 19.44° C | 32% | 903.4 hPa | 0 mm | - | - | - |
| 1778067832 | 20° C | 31% | 902.9 hPa | 0 mm | - | - | - |
| 1778064149 | 20° C | 32% | 903.2 hPa | 0 mm | - | - | - |
| 1778062298 | 18.89° C | 32% | 903.4 hPa | 0 mm | - | - | - |
| 1778057410 | 19.44° C | 31% | 903.5 hPa | 0 mm | - | - | - |
| 1778056799 | 20° C | 32% | 903.6 hPa | 0 mm | - | - | - |
| 1778055538 | 19.44° C | 32% | 903.8 hPa | 0 mm | - | - | - |
| 1778054904 | 19.44° C | 32% | 903.5 hPa | 0 mm | - | - | - |
| 1778054287 | 19.44° C | 30% | 903.4 hPa | 0 mm | - | - | - |
| 1778053063 | 20° C | 32% | 903.4 hPa | 0 mm | - | - | - |
| 1778052450 | 19.44° C | 32% | 903.6 hPa | 0 mm | - | - | - |
| 1778051214 | 19.44° C | 30% | 903.6 hPa | 0 mm | - | - | - |
| 1778049977 | 19.44° C | 32% | 903.6 hPa | 0 mm | - | - | - |
| 1778049354 | 19.44° C | 32% | 903.8 hPa | 0 mm | - | - | - |
| 1778048735 | 18.89° C | 32% | 903.8 hPa | 0 mm | - | - | - |
| 1778047495 | 20° C | 32% | 903.9 hPa | 0 mm | - | - | - |
| 1778044383 | 20° C | 32% | 903.9 hPa | 0 mm | - | - | - |
| 1778043764 | 19.44° C | 32% | 903.9 hPa | 0 mm | - | - | - |
| 1778042488 | 18.89° C | 32% | 904 hPa | 0 mm | - | - | - |
| 1778041873 | 20° C | 31% | 904 hPa | 0 mm | - | - | - |
| 1778040587 | 19.44° C | 32% | 904.3 hPa | 0 mm | - | - | - |
* Rain latest hour (hover to see other rain measurements)
** Current wind speed in m/s (hover to see current wind gust speed)